Simultaneous Nadir Overpasses (SNOs) Predictions

Prediction of SNOs between GOES-15 and NPP Satellite Orbit:

Table of predicted SNOs for the next 14.0 days since TLE Epoch: 8/12/2016
Index Date Time (GOES-15) GOES-15 Lat,Lon NPP Lat,Lon Distance(km) Time Diff (sec)
1 08/13/2016 10:40:07 0.38,-134.68 1.15,-138.07 386.56 80
2 08/14/2016 10:18:43 0.37,-134.72 0.09,-133.55 134.16 80
3 08/15/2016 22:40:38 -0.38,-134.76 -1.28,-138.85 465.30 80
4 08/16/2016 22:24:33 -0.37,-134.80 -0.29,-134.31 55.64 80
5 08/19/2016 10:27:35 0.37,-134.92 0.39,-135.06 15.27 80
6 08/21/2016 22:28:05 -0.38,-134.98 -0.58,-135.82 96.33 80
7 08/22/2016 22:12:01 -0.37,-135.01 0.48,-131.30 423.80 80
8 08/24/2016 10:33:48 0.38,-135.09 0.69,-136.57 168.52 80
9 08/25/2016 10:12:23
